Weather History for Jesup, GA

Change the Weather History Date:

Friday, February 22, 2013

  Actual Average (KLHW) Record (KLHW)
Temperature  
Mean Temperature 60 °F -  
Max Temperature 68 °F 68 °F 82 °F (1991)
Min Temperature 53 °F 46 °F 27 °F (1970)
Degree Days  
Heating Degree Days 4    
Growing Degree Days 10 (Base 50)    
Moisture  
Dew Point 60 °F    
Average Humidity 94    
Maximum Humidity 100    
Minimum Humidity 82    
Precipitation  
Precipitation 0.00 in - - ()
Sea Level Pressure  
Sea Level Pressure 30.06 in    
Wind  
Wind Speed 5 mph (East)    
Max Wind Speed 8 mph    
Max Gust Speed 12 mph    
Visibility 8 miles    
Events Rain    
Averages and records for this station are not official NWS values.
T = Trace of Precipitation, MM = Missing Value Source: NWS Daily Summary

Daily Weather History Graph

Daily Weather History Graph

Search for Another Location

Airport:

Trip Planner

Search our weather history database for the weather conditions in past years. The results will help you decide how hot, cold, wet, or windy it might be!

Date:

Astronomy

Feb. 22, 2013 Rise Set
Actual Time 7:01 AM EST 6:20 PM EST
Civil Twilight 6:37 AM EST 6:45 PM EST
Nautical Twilight 6:09 AM EST 7:13 PM EST
Astronomical Twilight 5:40 AM EST 7:41 PM EST
Moon 3:37 PM EST (2/22) 4:38 AM EST (2/22)
Length of Visible Light 12h 07m
Length of Day
11h 18m
Waxing Gibbous, 90% of the Moon is Illuminated
Feb 22
Waxing Gibbous
Feb 25
Full
Mar 4
Last Quarter
Mar 11
New
Mar 19
First Quarter

Hourly Weather History & Observations

Time (EST) Temp. Dew Point Humidity Pressure Visibility Wind Dir Wind Speed Gust Speed Precip Events Conditions
12:15 AM 53.6 °F 51.8 °F 94% 30.09 in 10.0 mi East 4.6 mph - N/A   Overcast
12:35 AM 53.6 °F 51.8 °F 94% 30.09 in 10.0 mi East 4.6 mph - N/A   Overcast
12:55 AM 53.6 °F 51.8 °F 94% 30.09 in 10.0 mi East 4.6 mph - N/A   Overcast
1:15 AM 53.6 °F 51.8 °F 94% 30.08 in 10.0 mi East 4.6 mph - N/A   Overcast
1:35 AM 53.6 °F 53.6 °F 100% 30.08 in 10.0 mi East 5.8 mph - N/A   Mostly Cloudy
1:55 AM 55.4 °F 53.6 °F 94% 30.08 in 10.0 mi East 4.6 mph - N/A   Mostly Cloudy
2:15 AM 55.4 °F 53.6 °F 94% 30.08 in 10.0 mi East 5.8 mph - N/A   Overcast
2:35 AM 55.4 °F 53.6 °F 94% 30.07 in 10.0 mi East 5.8 mph - N/A   Overcast
2:55 AM 55.4 °F 53.6 °F 94% 30.07 in 10.0 mi East 4.6 mph - N/A   Overcast
3:15 AM 57.2 °F 53.6 °F 88% 30.06 in 10.0 mi East 5.8 mph - N/A   Overcast
3:35 AM 57.2 °F 53.6 °F 88% 30.06 in 10.0 mi ENE 4.6 mph - N/A   Overcast
3:55 AM 57.2 °F 53.6 °F 88% 30.06 in 10.0 mi East 5.8 mph - N/A   Overcast
4:15 AM 59.0 °F 53.6 °F 82% 30.06 in 7.0 mi East 4.6 mph - N/A   Overcast
4:35 AM 59.0 °F 55.4 °F 88% 30.06 in 7.0 mi East 5.8 mph - N/A   Overcast
4:55 AM 59.0 °F 55.4 °F 88% 30.05 in 10.0 mi ESE 5.8 mph - N/A   Overcast
5:15 AM 59.0 °F 55.4 °F 88% 30.06 in 10.0 mi East 4.6 mph - N/A   Overcast
5:35 AM 59.0 °F 57.2 °F 94% 30.06 in 10.0 mi ESE 5.8 mph - N/A   Overcast
5:55 AM 60.8 °F 57.2 °F 88% 30.06 in 10.0 mi East 5.8 mph - N/A   Overcast
6:15 AM 60.8 °F 59.0 °F 94% 30.06 in 10.0 mi ESE 5.8 mph - N/A   Overcast
6:35 AM 60.8 °F 59.0 °F 94% 30.07 in 10.0 mi East 5.8 mph - N/A   Overcast
6:55 AM 60.8 °F 59.0 °F 94% 30.07 in 10.0 mi East 6.9 mph - N/A   Overcast
7:15 AM 60.8 °F 59.0 °F 94% 30.08 in 10.0 mi East 5.8 mph - N/A   Overcast
7:55 AM 60.8 °F 59.0 °F 94% 30.08 in 10.0 mi ESE 8.1 mph - N/A   Overcast
8:15 AM 62.6 °F 60.8 °F 94% 30.09 in 10.0 mi East 6.9 mph - N/A   Overcast
8:35 AM 62.6 °F 60.8 °F 94% 30.09 in 10.0 mi East 6.9 mph - N/A   Overcast
8:55 AM 62.6 °F 60.8 °F 94% 30.09 in 10.0 mi East 6.9 mph - N/A   Overcast
9:15 AM 64.4 °F 60.8 °F 88% 30.10 in 10.0 mi East 5.8 mph - N/A   Overcast
9:35 AM 64.4 °F 62.6 °F 94% 30.10 in 10.0 mi East 4.6 mph - N/A   Overcast
9:55 AM 64.4 °F 62.6 °F 94% 30.09 in 10.0 mi ESE 6.9 mph - N/A   Overcast
10:15 AM 66.2 °F 62.6 °F 88% 30.09 in 10.0 mi East 8.1 mph - N/A   Mostly Cloudy
10:35 AM 66.2 °F 62.6 °F 88% 30.09 in 10.0 mi East 8.1 mph - N/A   Mostly Cloudy
10:55 AM 66.2 °F 62.6 °F 88% 30.10 in 10.0 mi East 8.1 mph - N/A   Overcast
11:15 AM 66.2 °F 62.6 °F 88% 30.10 in 10.0 mi East 6.9 mph - N/A   Overcast
11:35 AM 68.0 °F 62.6 °F 83% 30.10 in 10.0 mi ENE 6.9 mph - N/A   Overcast
11:55 AM 66.2 °F 62.6 °F 88% 30.11 in 10.0 mi NE 8.1 mph - N/A   Overcast
12:15 PM 66.2 °F 62.6 °F 88% 30.10 in 10.0 mi ENE 8.1 mph - N/A   Overcast
12:35 PM 66.2 °F 62.6 °F 88% 30.09 in 10.0 mi ENE 6.9 mph - N/A   Overcast
12:55 PM 66.2 °F 62.6 °F 88% 30.09 in 10.0 mi ENE 4.6 mph - N/A   Overcast
1:15 PM 64.4 °F 62.6 °F 94% 30.08 in 10.0 mi East 6.9 mph - N/A   Overcast
1:35 PM 66.2 °F 62.6 °F 88% 30.06 in 10.0 mi East 4.6 mph - N/A   Overcast
1:55 PM 64.4 °F 62.6 °F 94% 30.07 in 10.0 mi East 4.6 mph - N/A   Overcast
2:15 PM 64.4 °F 62.6 °F 94% 30.07 in 10.0 mi East 4.6 mph - N/A   Light Drizzle
2:35 PM 64.4 °F 62.6 °F 94% 30.05 in 10.0 mi SSE 5.8 mph - N/A   Overcast
2:55 PM 64.4 °F 62.6 °F 94% 30.02 in 7.0 mi SSE 6.9 mph - N/A Rain Light Rain
3:15 PM 64.4 °F 64.4 °F 100% 30.04 in 7.0 mi Calm Calm - N/A   Overcast
3:35 PM 64.4 °F 64.4 °F 100% 30.02 in 7.0 mi Calm Calm - N/A   Light Drizzle
3:55 PM 64.4 °F 64.4 °F 100% 29.98 in 7.0 mi SSE 4.6 mph - N/A Rain Light Rain
4:15 PM 64.4 °F 64.4 °F 100% 30.03 in 7.0 mi North 6.9 mph 11.5 mph N/A Rain Light Rain
4:35 PM 64.4 °F 64.4 °F 100% 30.01 in 7.0 mi SSE 3.5 mph - N/A   Mostly Cloudy
4:55 PM 64.4 °F 64.4 °F 100% 30.01 in 5.0 mi East 4.6 mph - N/A   Light Drizzle
5:15 PM 64.4 °F 62.6 °F 94% 30.04 in 7.0 mi North 5.8 mph - N/A   Light Drizzle
5:35 PM 62.6 °F 62.6 °F 100% 30.04 in 5.0 mi NNE 5.8 mph - N/A   Light Drizzle
5:55 PM 62.6 °F 62.6 °F 100% 30.05 in 5.0 mi NE 4.6 mph - N/A Rain Light Rain
6:15 PM 60.8 °F 60.8 °F 100% 30.03 in 3.0 mi SSE 4.6 mph - N/A Rain Light Rain
6:35 PM 60.8 °F 60.8 °F 100% 30.03 in 4.0 mi SSE 4.6 mph - N/A Rain Rain
6:55 PM 60.8 °F 60.8 °F 100% 30.06 in 4.0 mi North 4.6 mph - N/A Rain Light Rain
7:15 PM 60.8 °F 60.8 °F 100% 30.07 in 4.0 mi Calm Calm - N/A Rain Light Rain
7:35 PM 60.8 °F 60.8 °F 100% 30.07 in 2.5 mi Calm Calm - N/A Rain Light Rain
7:55 PM 60.8 °F 60.8 °F 100% 30.08 in 2.5 mi NNW 3.5 mph - N/A Rain Rain
8:15 PM 60.8 °F 60.8 °F 100% 30.06 in 3.0 mi East 3.5 mph - N/A Rain Light Rain
8:35 PM 60.8 °F 60.8 °F 100% 30.06 in 1.5 mi Calm Calm - N/A Rain Light Rain
8:55 PM 60.8 °F 60.8 °F 100% 30.06 in 1.8 mi Calm Calm - N/A Rain Light Rain
9:15 PM 60.8 °F 60.8 °F 100% 30.07 in 2.5 mi Calm Calm - N/A Rain Light Rain
9:35 PM 60.8 °F 60.8 °F 100% 30.06 in 2.5 mi Calm Calm - N/A Rain Light Rain
9:55 PM 60.8 °F 60.8 °F 100% 30.06 in 1.0 mi Calm Calm - N/A Rain Rain
10:15 PM 60.8 °F 60.8 °F 100% 30.05 in 0.5 mi Calm Calm - N/A Rain Light Rain
10:35 PM 60.8 °F 60.8 °F 100% 30.05 in 2.5 mi Calm Calm - N/A Rain Light Rain
10:55 PM 60.8 °F 60.8 °F 100% 30.06 in 3.0 mi South 3.5 mph - N/A Rain Rain
11:15 PM 60.8 °F 60.8 °F 100% 30.03 in 2.5 mi Calm Calm - N/A Rain Rain
11:55 PM 62.6 °F 62.6 °F 100% 30.03 in 4.0 mi South 5.8 mph - N/A Rain Rain